sat.trackr.live / text

‹ back to catalog

STARLINK-34103

NORAD 63962 · 2025-099L

PAYLOAD ACTIVE UNKNOWN

§ Identity

Operator
Country
US
Launch date
2025-05-13
Launch site
AFETR
Launch vehicle
Mass (kg)
RCS (m²)

Purposes: comms

External: N2YO · Heavens-Above · Gunter

§ Orbital elements

Epoch: 2026-05-25T04:07:25.496832Z

Period
94.27 min
Inclination
42.9996°
Eccentricity
0.0001335
Mean motion
15.27595691 rev/d
Perigee alt
482.1 km
Apogee alt
483.9 km
Semi-major
6,861.1 km
B*
6.2326e-4
RAAN
104.2539°
Arg perigee
273.5916°
Mean anomaly
86.4782°
Rev number
5,903

§ Raw data

STARLINK-341031 63962U 25099L   26145.17182288  .00016936  00000+0  62326-3 0  99922 63962  42.9996 104.2539 0001335 273.5916  86.4782 15.27595691 59038

JSON: /api/v1/satellites/63962 · /tle

For live sub-satellite position, see the globe view (requires WebGL).

§ Visibility from observer

Set your observer location to see the next 7 days of passes ≥ 10°. The values pass through the URL so the page stays shareable.

No JS? Fill the form by hand. The geolocation button needs JavaScript.